OCN6JR EDDM-LEPA

Flight info

Callsign OCN6JR
Flight time N/A
Altitude 37000
Route TURBU7S TURBU Y107 TOBSO DCT BAKOR DCT SUMIR DCT MISPO DCT PIDAD DCT TALEP DCT RARQU DCT BALEN UT250 RIXOT
Aircraft A320/M-SDE3FGHIRWY/LB1

Departure

Time N/A
Airport Munich Airport (EDDM)

Arrival

Time 2026-05-07 22:00
Airport Palma de Mallorca Airport (LEPA)
Time Latitude Longitude Altitude Speed Heading
2026-05-07 20:26 46.67497 11.74940 31356 ft 466 kts 192°
2026-05-07 20:26 46.64336 11.73929 31634 ft 465 kts 195°
2026-05-07 20:26 46.61320 11.72430 31930 ft 463 kts 204°
2026-05-07 20:27 46.58471 11.70240 32175 ft 463 kts 213°
2026-05-07 20:27 46.55860 11.67521 32490 ft 461 kts 217°
2026-05-07 20:27 46.53282 11.64757 32749 ft 461 kts 216°
2026-05-07 20:27 46.50690 11.62008 32984 ft 461 kts 216°
2026-05-07 20:28 46.48092 11.59271 33217 ft 461 kts 216°
2026-05-07 20:28 46.46383 11.57475 33423 ft 459 kts 216°
2026-05-07 20:29 46.37469 11.48118 34414 ft 454 kts 216°
2026-05-07 20:29 46.34908 11.45424 34610 ft 456 kts 216°
2026-05-07 20:29 46.32340 11.42725 34788 ft 457 kts 216°
2026-05-07 20:29 46.29776 11.40036 35056 ft 454 kts 216°
2026-05-07 20:30 46.27256 11.37398 35335 ft 452 kts 216°
2026-05-07 20:30 46.24675 11.34701 35594 ft 450 kts 216°
2026-05-07 20:30 46.22150 11.32038 35809 ft 450 kts 216°
2026-05-07 20:30 46.19666 11.29398 36009 ft 449 kts 216°
2026-05-07 20:31 46.17151 11.26717 36165 ft 449 kts 216°
2026-05-07 20:31 46.14643 11.24037 36329 ft 449 kts 216°
2026-05-07 20:31 46.12130 11.21357 36500 ft 449 kts 216°
2026-05-07 20:31 46.09615 11.18690 36699 ft 448 kts 216°
2026-05-07 20:32 46.07108 11.16046 36890 ft 446 kts 216°
2026-05-07 20:32 46.04602 11.13407 37052 ft 446 kts 216°
2026-05-07 20:32 46.02097 11.10772 37100 ft 446 kts 216°
2026-05-07 20:33 45.97076 11.05492 37102 ft 448 kts 216°
2026-05-07 20:33 45.92025 11.00190 37086 ft 450 kts 216°
2026-05-07 20:34 45.86995 10.94917 37092 ft 451 kts 216°
2026-05-07 20:34 45.81938 10.89635 37085 ft 450 kts 216°
2026-05-07 20:35 45.76856 10.84340 37078 ft 452 kts 216°
2026-05-07 20:35 45.71779 10.79057 37108 ft 451 kts 216°
2026-05-07 20:36 45.66699 10.73784 37117 ft 450 kts 216°
2026-05-07 20:36 45.61638 10.68537 37120 ft 449 kts 216°
2026-05-07 20:37 45.56584 10.63320 37118 ft 447 kts 216°
2026-05-07 20:37 45.51544 10.58129 36996 ft 445 kts 216°
2026-05-07 20:38 45.46553 10.52993 36981 ft 442 kts 216°
2026-05-07 20:38 45.41562 10.47863 36980 ft 443 kts 216°
2026-05-07 20:39 45.36578 10.42764 36984 ft 444 kts 216°
2026-05-07 20:39 45.31540 10.37624 36989 ft 444 kts 216°
2026-05-07 20:40 45.26514 10.32501 36995 ft 444 kts 216°
2026-05-07 20:40 45.21522 10.27432 36999 ft 445 kts 216°
2026-05-07 20:41 45.16485 10.22315 37002 ft 445 kts 216°
2026-05-07 20:41 45.11454 10.17218 37004 ft 445 kts 216°
2026-05-07 20:42 45.06421 10.12132 37005 ft 445 kts 215°
2026-05-07 20:42 45.01380 10.07059 37005 ft 445 kts 215°
2026-05-07 20:43 44.96338 10.01967 37002 ft 445 kts 216°
2026-05-07 20:43 44.91335 9.96925 37001 ft 445 kts 215°
2026-05-07 20:44 44.86288 9.91850 36999 ft 445 kts 216°
2026-05-07 20:44 44.81239 9.86785 36997 ft 446 kts 215°
2026-05-07 20:45 44.76171 9.81717 36990 ft 447 kts 215°
2026-05-07 20:45 44.71095 9.76664 36984 ft 448 kts 215°
2026-05-07 20:46 44.66006 9.71591 36981 ft 449 kts 215°
2026-05-07 20:46 44.60900 9.66509 36989 ft 450 kts 215°
2026-05-07 20:47 44.55794 9.61443 36995 ft 450 kts 215°
2026-05-07 20:47 44.50675 9.56387 36994 ft 450 kts 215°
2026-05-07 20:48 44.45547 9.51334 36988 ft 451 kts 215°
2026-05-07 20:48 44.40413 9.46276 36993 ft 452 kts 215°
2026-05-07 20:49 44.35273 9.41220 37007 ft 451 kts 215°
2026-05-07 20:49 44.30143 9.36179 37020 ft 450 kts 215°
2026-05-07 20:50 44.25059 9.31204 37025 ft 448 kts 215°
2026-05-07 20:50 44.19949 9.26214 37023 ft 447 kts 215°
2026-05-07 20:51 44.14858 9.21248 37020 ft 446 kts 215°
2026-05-07 20:51 44.09767 9.16299 37017 ft 446 kts 215°
2026-05-07 20:52 44.04678 9.11367 37014 ft 446 kts 215°
2026-05-07 20:52 43.99592 9.06447 37012 ft 445 kts 215°
2026-05-07 20:53 43.94504 9.01535 37010 ft 445 kts 215°
2026-05-07 20:53 43.89415 8.96624 37008 ft 445 kts 214°
2026-05-07 20:54 43.84323 8.91732 37006 ft 445 kts 214°
2026-05-07 20:54 43.79234 8.86858 37005 ft 445 kts 214°
2026-05-07 20:55 43.74143 8.81985 37082 ft 446 kts 214°
2026-05-07 20:55 43.69034 8.77096 37101 ft 447 kts 214°
2026-05-07 20:56 43.64619 8.73433 37106 ft 446 kts 203°
2026-05-07 20:56 43.58650 8.71319 37096 ft 445 kts 184°
2026-05-07 20:57 43.52525 8.70538 37084 ft 442 kts 201°
2026-05-07 20:57 43.49795 8.68609 37085 ft 441 kts 213°
2026-05-07 20:57 43.47228 8.66283 37077 ft 442 kts 209°
2026-05-07 20:58 43.41824 8.62251 37075 ft 443 kts 208°
2026-05-07 20:58 43.36388 8.58219 37075 ft 444 kts 208°
2026-05-07 20:59 43.31394 8.53280 37074 ft 444 kts 220°
2026-05-07 20:59 43.26830 8.47576 37075 ft 444 kts 223°
2026-05-07 21:00 43.22331 8.41759 37076 ft 445 kts 223°
2026-05-07 21:00 43.17752 8.36042 37078 ft 445 kts 221°
2026-05-07 21:01 43.13116 8.30410 37080 ft 445 kts 221°
2026-05-07 21:01 43.08446 8.24749 37083 ft 446 kts 221°
2026-05-07 21:02 43.03812 8.19117 37091 ft 446 kts 221°
2026-05-07 21:02 42.99181 8.13476 37086 ft 446 kts 221°
2026-05-07 21:03 42.94578 8.07882 37090 ft 446 kts 221°
2026-05-07 21:03 42.89936 8.02258 37085 ft 446 kts 221°
2026-05-07 21:04 42.85298 7.96647 36993 ft 445 kts 221°
2026-05-07 21:04 42.80671 7.91064 36983 ft 444 kts 221°
2026-05-07 21:05 42.76035 7.85502 36983 ft 444 kts 221°
2026-05-07 21:05 42.71391 7.79941 36984 ft 445 kts 221°
2026-05-07 21:06 42.66747 7.74378 36986 ft 445 kts 221°
2026-05-07 21:06 42.62095 7.68814 36989 ft 445 kts 221°
2026-05-07 21:07 42.57440 7.63251 36990 ft 446 kts 221°
2026-05-07 21:07 42.52785 7.57698 36992 ft 446 kts 221°
2026-05-07 21:08 42.48122 7.52156 36993 ft 446 kts 221°
2026-05-07 21:08 42.43455 7.46632 36994 ft 446 kts 221°
2026-05-07 21:09 42.38790 7.41106 36994 ft 446 kts 221°
2026-05-07 21:09 42.34126 7.35582 36995 ft 446 kts 221°
2026-05-07 21:10 42.29452 7.30079 36995 ft 446 kts 221°
2026-05-07 21:10 42.24765 7.24583 36995 ft 446 kts 221°
2026-05-07 21:11 42.20089 7.19092 36996 ft 446 kts 221°
2026-05-07 21:11 42.13068 7.10868 36996 ft 446 kts 221°
2026-05-07 21:12 42.08384 7.05408 36996 ft 446 kts 221°
2026-05-07 21:12 42.03692 6.99939 36996 ft 446 kts 221°
2026-05-07 21:13 41.99031 6.94436 36997 ft 446 kts 222°
2026-05-07 21:13 41.94468 6.88794 36997 ft 446 kts 223°
2026-05-07 21:14 41.89916 6.83135 36997 ft 446 kts 223°
2026-05-07 21:14 41.85337 6.77524 36997 ft 446 kts 222°
2026-05-07 21:15 41.80749 6.71929 36998 ft 446 kts 222°
2026-05-07 21:15 41.76180 6.66369 36998 ft 446 kts 222°
2026-05-07 21:16 41.71587 6.60794 36998 ft 446 kts 222°
2026-05-07 21:16 41.66985 6.55222 36998 ft 446 kts 222°
2026-05-07 21:17 41.62380 6.49659 36998 ft 446 kts 222°
2026-05-07 21:17 41.57775 6.44103 36999 ft 446 kts 222°
2026-05-07 21:18 41.53175 6.38549 36999 ft 446 kts 222°
2026-05-07 21:18 41.48571 6.33007 36999 ft 446 kts 222°
2026-05-07 21:20 41.44814 6.29550 36996 ft 444 kts 212°
2026-05-07 21:21 41.40139 6.24214 36987 ft 444 kts 227°
2026-05-07 21:21 41.35949 6.18142 36937 ft 446 kts 226°
2026-05-07 21:22 41.31520 6.12339 37008 ft 448 kts 222°
2026-05-07 21:22 41.26845 6.06852 37016 ft 448 kts 220°
2026-05-07 21:23 41.22135 6.01436 37018 ft 448 kts 221°
2026-05-07 21:23 41.17472 5.95950 37019 ft 448 kts 222°
2026-05-07 21:24 41.12848 5.90440 36894 ft 445 kts 222°
2026-05-07 21:24 41.08235 5.84969 36895 ft 445 kts 221°
2026-05-07 21:25 41.03637 5.79550 36902 ft 446 kts 221°
2026-05-07 21:25 40.98967 5.74062 37003 ft 446 kts 221°
2026-05-07 21:26 40.94469 5.68443 37016 ft 448 kts 230°
2026-05-07 21:26 40.90810 5.61776 37020 ft 448 kts 234°
2026-05-07 21:27 40.87213 5.55059 37020 ft 448 kts 234°
2026-05-07 21:27 40.83610 5.48348 37020 ft 448 kts 234°
2026-05-07 21:28 40.80000 5.41650 36900 ft 448 kts 234°
2026-05-07 21:28 40.78193 5.38305 36651 ft 447 kts 234°
2026-05-07 21:28 40.76391 5.34967 36400 ft 447 kts 234°
2026-05-07 21:29 40.74589 5.31629 36154 ft 447 kts 234°
2026-05-07 21:29 40.72763 5.28243 35902 ft 446 kts 234°
2026-05-07 21:29 40.70966 5.24916 35652 ft 446 kts 234°
2026-05-07 21:29 40.69159 5.21582 34953 ft 449 kts 234°
2026-05-07 21:30 40.67335 5.18222 34077 ft 452 kts 234°
2026-05-07 21:30 40.65504 5.14850 33121 ft 455 kts 234°
2026-05-07 21:30 40.63656 5.11447 32114 ft 459 kts 234°
2026-05-07 21:30 40.61793 5.08020 31103 ft 461 kts 234°
2026-05-07 21:31 40.59920 5.04585 30351 ft 458 kts 234°
2026-05-07 21:31 40.58076 5.01204 29730 ft 452 kts 234°
2026-05-07 21:31 40.56252 4.97863 29071 ft 448 kts 234°
2026-05-07 21:31 40.54465 4.94593 28435 ft 444 kts 234°
2026-05-07 21:32 40.52671 4.91316 27793 ft 440 kts 234°
2026-05-07 21:32 40.50891 4.88073 27171 ft 435 kts 234°
2026-05-07 21:32 40.49125 4.84857 26553 ft 432 kts 234°
2026-05-07 21:32 40.47374 4.81670 25936 ft 428 kts 234°
2026-05-07 21:33 40.45635 4.78505 25322 ft 424 kts 234°
2026-05-07 21:33 40.43911 4.75370 24708 ft 421 kts 234°
2026-05-07 21:33 40.42198 4.72262 24083 ft 418 kts 234°
2026-05-07 21:33 40.40501 4.69186 23477 ft 415 kts 234°
2026-05-07 21:34 40.38834 4.66163 22893 ft 412 kts 234°
2026-05-07 21:34 40.37170 4.63144 22646 ft 405 kts 234°
2026-05-07 21:34 40.35517 4.60153 22354 ft 403 kts 234°
2026-05-07 21:34 40.33880 4.57189 22055 ft 401 kts 234°
2026-05-07 21:35 40.32244 4.54232 21757 ft 399 kts 234°
2026-05-07 21:35 40.30618 4.51299 21463 ft 397 kts 234°
2026-05-07 21:35 40.28998 4.48381 21157 ft 395 kts 234°
2026-05-07 21:35 40.27927 4.46456 20977 ft 394 kts 234°
2026-05-07 21:36 40.25794 4.42615 20593 ft 392 kts 234°
2026-05-07 21:36 40.24193 4.39737 20310 ft 390 kts 234°
2026-05-07 21:36 40.22598 4.36875 20014 ft 388 kts 234°
2026-05-07 21:36 40.21010 4.34026 19726 ft 387 kts 234°
2026-05-07 21:37 40.19941 4.32107 19536 ft 385 kts 234°
2026-05-07 21:37 40.17853 4.28359 19159 ft 383 kts 234°
2026-05-07 21:37 40.16793 4.26459 18966 ft 382 kts 234°
2026-05-07 21:37 40.15244 4.23682 18680 ft 381 kts 234°
2026-05-07 21:38 40.13173 4.19989 18314 ft 379 kts 233°
2026-05-07 21:38 40.12118 4.18111 18127 ft 378 kts 233°
2026-05-07 21:38 40.10561 4.15342 17848 ft 376 kts 233°
2026-05-07 21:38 40.09029 4.12617 17571 ft 375 kts 234°
2026-05-07 21:39 40.07485 4.09863 17292 ft 373 kts 234°
2026-05-07 21:39 40.05950 4.07126 17016 ft 372 kts 233°
2026-05-07 21:39 40.04423 4.04411 16745 ft 371 kts 233°
2026-05-07 21:39 40.02896 4.01701 16468 ft 370 kts 233°
2026-05-07 21:40 40.01371 3.98994 16186 ft 368 kts 233°
2026-05-07 21:40 39.99875 3.96336 15919 ft 367 kts 233°
2026-05-07 21:40 39.98358 3.93650 15652 ft 366 kts 233°
2026-05-07 21:40 39.96851 3.90981 15384 ft 365 kts 233°
2026-05-07 21:41 39.95346 3.88317 15109 ft 363 kts 233°
2026-05-07 21:41 39.93864 3.85699 14844 ft 362 kts 233°
2026-05-07 21:41 39.92369 3.83058 14583 ft 360 kts 233°
2026-05-07 21:41 39.90883 3.80432 14315 ft 359 kts 233°
2026-05-07 21:42 39.89401 3.77815 14049 ft 358 kts 233°
2026-05-07 21:42 39.87935 3.75235 13786 ft 356 kts 233°
2026-05-07 21:42 39.86460 3.72647 13524 ft 355 kts 233°
2026-05-07 21:42 39.84986 3.70062 13261 ft 354 kts 233°
2026-05-07 21:43 39.83518 3.67493 12996 ft 352 kts 233°
2026-05-07 21:43 39.82072 3.64960 12740 ft 351 kts 233°
2026-05-07 21:43 39.80618 3.62406 12481 ft 350 kts 233°
2026-05-07 21:43 39.79170 3.59870 12223 ft 348 kts 233°
2026-05-07 21:44 39.77724 3.57341 11961 ft 347 kts 233°
2026-05-07 21:44 39.76288 3.54826 11701 ft 346 kts 233°
2026-05-07 21:44 39.74855 3.52320 11454 ft 344 kts 233°
2026-05-07 21:44 39.73426 3.49822 11193 ft 343 kts 233°
2026-05-07 21:45 39.72005 3.47340 10936 ft 342 kts 233°
2026-05-07 21:45 39.70585 3.44863 10691 ft 341 kts 233°
2026-05-07 21:45 39.69325 3.42309 10496 ft 329 kts 243°
2026-05-07 21:45 39.68325 3.39739 10372 ft 316 kts 243°
2026-05-07 21:46 39.67345 3.37244 10243 ft 304 kts 243°
2026-05-07 21:46 39.66393 3.34836 10031 ft 297 kts 243°
2026-05-07 21:46 39.65458 3.32477 9908 ft 292 kts 243°
2026-05-07 21:46 39.64525 3.30126 9769 ft 292 kts 243°
2026-05-07 21:47 39.63596 3.27783 9557 ft 291 kts 243°
2026-05-07 21:47 39.62671 3.25451 9337 ft 290 kts 243°
2026-05-07 21:47 39.61749 3.23126 9115 ft 289 kts 243°
2026-05-07 21:47 39.60843 3.20839 8893 ft 288 kts 243°
2026-05-07 21:48 39.59929 3.18535 8676 ft 286 kts 243°
2026-05-07 21:48 39.59017 3.16247 8453 ft 285 kts 243°
2026-05-07 21:48 39.58108 3.13966 8237 ft 284 kts 243°
2026-05-07 21:48 39.57204 3.11692 8019 ft 283 kts 243°
2026-05-07 21:49 39.56306 3.09426 7801 ft 282 kts 243°
2026-05-07 21:49 39.55404 3.07153 7588 ft 282 kts 243°
2026-05-07 21:49 39.54504 3.04890 7370 ft 281 kts 243°
2026-05-07 21:49 39.53624 3.02681 7151 ft 279 kts 243°
2026-05-07 21:50 39.52731 3.00448 6945 ft 278 kts 243°
2026-05-07 21:50 39.51841 2.98226 6729 ft 277 kts 243°
2026-05-07 21:50 39.50954 2.96010 6517 ft 276 kts 243°
2026-05-07 21:50 39.50727 2.95442 6452 ft 276 kts 243°
2026-05-07 21:51 39.49918 2.93424 6274 ft 274 kts 243°
2026-05-07 21:51 39.49039 2.91229 6079 ft 274 kts 243°
2026-05-07 21:51 39.48163 2.89044 5884 ft 273 kts 243°
2026-05-07 21:51 39.47290 2.86866 5665 ft 272 kts 243°
2026-05-07 21:52 39.46421 2.84694 5465 ft 271 kts 243°
2026-05-07 21:52 39.45567 2.82560 5262 ft 270 kts 242°
2026-05-07 21:52 39.44696 2.80398 5050 ft 269 kts 242°
2026-05-07 21:52 39.43831 2.78250 4850 ft 269 kts 242°
2026-05-07 21:53 39.42969 2.76107 4640 ft 268 kts 242°
2026-05-07 21:53 39.42110 2.73972 4439 ft 267 kts 242°
2026-05-07 21:53 39.41253 2.71846 4233 ft 266 kts 242°
2026-05-07 21:53 39.40398 2.69726 4027 ft 265 kts 242°
2026-05-07 21:54 39.39548 2.67616 3824 ft 264 kts 242°
2026-05-07 21:54 39.38700 2.65514 3619 ft 263 kts 242°
2026-05-07 21:54 39.37918 2.63378 3403 ft 262 kts 254°
2026-05-07 21:54 39.37860 2.61051 3191 ft 261 kts 282°
2026-05-07 21:55 39.38527 2.58931 3062 ft 249 kts 303°
2026-05-07 21:55 39.39547 2.57204 2947 ft 235 kts 309°
2026-05-07 21:55 39.40579 2.55662 2864 ft 224 kts 313°
2026-05-07 21:55 39.41646 2.54256 2765 ft 214 kts 316°
2026-05-07 21:56 39.42762 2.53076 2689 ft 201 kts 332°
2026-05-07 21:56 39.44043 2.52585 2611 ft 186 kts 357°
2026-05-07 21:56 39.45291 2.52820 2518 ft 180 kts 21°
2026-05-07 21:56 39.46339 2.53669 2468 ft 178 kts 45°
2026-05-07 21:57 39.47062 2.54955 2399 ft 178 kts 59°
2026-05-07 21:57 39.47710 2.56317 2254 ft 178 kts 59°
2026-05-07 21:57 39.48358 2.57678 2142 ft 177 kts 59°
2026-05-07 21:57 39.49004 2.59037 2073 ft 178 kts 59°
2026-05-07 21:58 39.49651 2.60398 1891 ft 176 kts 60°
2026-05-07 21:58 39.50285 2.61733 1677 ft 169 kts 59°
2026-05-07 21:58 39.50870 2.62963 1468 ft 153 kts 60°
2026-05-07 21:58 39.51412 2.64104 1283 ft 145 kts 60°
2026-05-07 21:59 39.51938 2.65211 1084 ft 143 kts 49°
2026-05-07 21:59 39.52458 2.66312 900 ft 144 kts 51°
2026-05-07 21:59 39.52987 2.67420 709 ft 144 kts 50°
2026-05-07 21:59 39.53488 2.68548 526 ft 144 kts 52°
2026-05-07 22:00 39.54026 2.69634 327 ft 143 kts 50°
2026-05-07 22:00 39.54550 2.70730 117 ft 142 kts 52°
2026-05-07 22:00 39.55051 2.71769 31 ft 121 kts 56°
2026-05-07 22:00 39.55338 2.72375 30 ft 36 kts 61°
2026-05-07 22:01 39.55374 2.72455 30 ft 13 kts 59°
2026-05-07 22:01 39.55442 2.72603 30 ft 24 kts 58°
2026-05-07 22:01 39.55492 2.72799 30 ft 22 kts 116°
2026-05-07 22:01 39.55426 2.72938 30 ft 5 kts 137°
2026-05-07 22:02 39.55425 2.72940 30 ft 0 kts 136°
2026-05-07 22:03 39.55422 2.73003 30 ft 17 kts 70°
2026-05-07 22:03 39.55492 2.73150 30 ft 20 kts 58°
2026-05-07 22:03 39.55566 2.73309 30 ft 22 kts 58°
2026-05-07 22:04 39.55635 2.73464 30 ft 17 kts 62°
2026-05-07 22:04 39.55602 2.73519 30 ft 10 kts 149°
2026-05-07 22:04 39.55509 2.73593 30 ft 18 kts 149°
2026-05-07 22:04 39.55398 2.73683 30 ft 20 kts 145°
2026-05-07 22:05 39.55274 2.73776 30 ft 21 kts 149°
2026-05-07 22:05 39.55143 2.73882 30 ft 23 kts 149°
2026-05-07 22:05 39.55002 2.73991 30 ft 19 kts 149°
2026-05-07 22:05 39.54946 2.73987 30 ft 8 kts 219°
2026-05-07 22:06 39.54904 2.73963 30 ft 7 kts 168°
2026-05-07 22:06 39.54837 2.74002 30 ft 11 kts 178°
2026-05-07 22:06 39.54789 2.73940 30 ft 9 kts 239°
2026-05-07 22:06 39.54738 2.73834 30 ft 19 kts 238°
2026-05-07 22:07 39.54667 2.73681 30 ft 21 kts 244°
2026-05-07 22:07 39.54639 2.73548 30 ft 12 kts 298°
2026-05-07 22:07 39.54701 2.73493 30 ft 10 kts 329°
2026-05-07 22:07 39.54757 2.73450 30 ft 9 kts 327°
2026-05-07 22:08 39.54794 2.73396 30 ft 7 kts 292°
2026-05-07 22:08 39.54794 2.73341 30 ft 4 kts 266°
2026-05-07 22:08 39.54794 2.73333 30 ft 0 kts 267°